EUTELSAT 7A 1 28187U 04008A 21063.66373458 .00000094 00000-0 00000-0 0 9995 2 28187 0.9510 91.1994 0003753 270.6986 260.4529 1.00272533 61998 BREEZE-M DEB [TANK] 1 28188U 04008B 21063.04888635 .00004121 00000-0 39337-3 0 9999 2 28188 49.5040 304.6161 5112419 219.6787 88.8000 5.47474032326545 BREEZE-M R/B 1 28656U 04008C 21063.58512196 -.00000018 00000-0 00000-0 0 9998 2 28656 12.2261 230.4850 6044284 143.1452 342.5510 1.97318739116144